RH
60 61 63 66 68 70 69 69 69 70 73 72 72 73 72 74 81 83 82 72 67 66 64 62 65 66 47 45 47 46 46 48 44 52 53 58 68 66 62 62 64 68 68
63 69 69 68 69 70 71 66 67 72 71 71 69 73 74 74 82 84 79 75 82 67 65 62 58 48 60 61 44 67 64 62 52 69 64 52 66 68 67 70 66 56 60
63 64 69 73 77 79 76 74 70 71 69 65 68 72 73 75 82 87 81 83 77 62 62 59 58 58 60 60 62 56 54 57 55 52 55 55 56 58 60 66 76 78 64
60 64 71 69 73 70 73 72 71 70 68 67 69 73 76 75 82 85 77 80 74 61 62 58 54 52 65 66 63 66 65 55 60 50 52 54 56 64 61 62 74 78 75
67 66 70 67 66 66 69 69 67 67 64 66 68 72 75 75 74 83 74 76 81 64 55 46 47 60 68 64 50 67 66 56 50 50 54 58 70 77 81 75 81 78 96
68 66 67 69 68 71 71 70 71 70 68 70 72 71 75 65 98 89 76 68 83 60 50 51 60 67 73 81 80 80 73 71 73 56 57 78 89 85 78 69 66 70 95
70 67 69 72 72 73 72 72 72 74 72 74 74 74 75 74 93 88 80 66 78 62 54 57 47 47 62 63 80 80 78 81 79 72 74 84 87 91 88 81 79 77 96
70 69 72 74 72 73 76 77 78 74 77 76 76 78 77 78 92 85 80 72 74 63 50 52 52 63 61 59 59 62 62 66 66 56 68 74 82 83 80 76 82 85 92
68 70 72 74 75 75 78 80 79 77 79 78 75 79 82 91 91 82 76 64 69 70 49 53 55 57 75 74 55 60 64 65 80 86 86 86 86 86 83 70 72 76 89
66 68 71 75 76 77 78 81 80 78 78 68 75 78 91 89 90 81 71 49 61 61 54 58 71 58 83 83 59 61 61 61 61 65 63 71 74 78 81 82 73 82 82
83 78 73 77 79 77 80 80 81 82 75 81 79 83 91 87 85 82 75 50 53 60 35 43 41 83 89 85 81 60 65 63 72 63 58 56 60 68 70 72 77 74 69
91 86 79 76 71 66 82 81 82 83 84 83 82 91 92 85 90 83 75 66 72 59 45 38 49 83 89 89 80 84 88 71 50 53 54 57 61 70 74 74 83 84 84
90 92 92 84 77 76 80 81 76 81 68 74 84 90 94 85 74 84 78 76 79 68 56 56 80 92 93 89 85 89 91 43 45 49 53 58 60 64 73 75 78 85 85
96 92 90 94 96 89 70 66 66 66 64 64 79 91 92 89 74 67 61 69 80 71 86 68 69 71 77 64 66 66 45 40 45 50 53 58 57 57 63 64 69 70 71
88 96 95 94 96 96 92 82 67 67 64 61 68 78 91 93 81 77 69 61 61 79 86 66 53 53 55 54 50 45 46 42 47 53 52 55 54 56 62 58 67 65 69
97 97 99 98 97 95 96 99 99 96 100 100 100 78 69 89 100 92 90 91 93 90 69 68 53 46 45 44 44 44 45 47 42 51 52 52 52 53 60 60 60 65 66
99 98 99 99 93 96 94 96 99 100 100 100 100 100 100 100 100 98 95 97 94 82 58 88 56 45 41 40 37 39 38 38 56 48 51 52 51 52 57 59 61 67 67
98 100 99 99 99 96 96 98 99 99 99 100 100 100 100 100 100 100 100 97 90 78 84 92 76 50 39 36 36 36 38 45 40 44 50 49 49 48 54 57 56 58 60
97 97 98 98 99 100 99 99 99 98 98 99 99 100 100 100 100 100 100 98 95 92 88 80 87 59 39 36 39 43 45 39 39 42 48 49 50 46 50 50 54 76 70
96 100 99 98 98 97 98 96 98 97 94 92 92 97 98 96 99 99 98 96 96 96 94 64 87 79 44 39 42 46 43 44 45 40 44 47 48 46 45 47 48 55 55
95 94 99 98 97 98 98 98 97 96 95 96 97 99 100 92 90 92 90 93 93 94 90 73 88 59 48 44 41 41 38 35 36 34 41 44 47 43 47 46 46 48 52
95 97 95 96 96 97 96 96 97 97 98 98 98 97 100 78 76 90 92 95 92 96 97 96 82 48 46 41 40 34 36 36 37 34 35 39 43 42 43 44 44 48 52
88 91 95 96 96 97 96 96 96 97 97 97 98 98 98 97 96 96 96 95 96 97 98 98 91 68 55 53 43 51 34 31 38 36 34 35 40 41 42 43 44 47 50
90 89 82 83 87 92 94 95 96 98 96 96 96 97 97 97 97 97 98 97 96 97 98 98 97 80 77 68 72 52 44 39 37 39 39 34 37 51 40 40 41 44 47
87 94 88 80 80 82 77 85 88 90 93 95 96 97 97 97 97 97 98 98 98 98 98 98 98 97 94 91 88 90 95 100 70 58 45 39 38 47 39 38 39 41 45
72 86 93 92 84 79 88 84 78 73 75 86 93 96 97 97 97 97 98 97 98 97 97 98 98 96 96 97 97 98 99 97 86 90 50 43 40 40 37 40 43 37 43
Wind_Speed
16 15 14 12 12 11 10 9 9 7 6 5 4 4 4 2 5 5 5 6 5 4 4 4 5 4 4 4 4 4 4 4 4 2 1 3 1 2 4 4 2 3 5
15 14 14 13 12 12 12 12 10 9 7 7 6 5 5 4 6 7 8 6 4 5 5 5 5 4 5 5 5 6 6 5 4 2 4 2 3 3 2 1 2 2 3
15 16 14 13 13 13 13 11 11 10 9 8 7 7 7 6 6 7 9 7 5 6 5 5 5 5 5 6 6 6 6 5 4 4 4 3 1 3 2 2 4 3 3
16 16 15 16 15 14 12 12 11 11 10 10 9 8 7 7 7 9 10 8 7 6 5 6 6 6 6 7 7 7 6 6 6 6 5 5 4 3 3 4 3 3 3
15 16 17 15 14 13 13 12 11 11 10 10 10 8 7 7 7 10 10 9 7 8 7 7 7 8 8 7 6 7 6 7 7 7 7 7 7 5 5 4 1 4 2
15 16 14 14 13 13 12 11 10 10 10 10 10 9 9 7 13 13 14 11 8 10 9 9 10 11 11 12 14 15 11 8 9 7 7 6 5 5 4 4 3 3 1
13 13 13 13 13 13 12 11 11 11 10 11 11 10 10 7 14 15 13 11 9 9 11 11 10 8 9 11 12 13 13 13 10 7 8 6 5 6 4 3 2 4 2
12 13 12 13 13 12 12 12 11 10 11 10 11 11 9 7 15 15 14 12 8 9 11 11 10 11 8 8 7 7 7 8 8 7 9 9 8 8 5 4 3 3 2
13 13 13 13 12 12 14 13 11 10 9 10 9 11 10 7 14 16 13 12 10 8 10 10 10 10 10 8 6 6 6 7 6 7 11 9 11 16 13 6 4 1 2
10 10 10 11 12 13 13 12 10 10 10 8 9 10 10 10 14 17 13 10 10 8 9 9 7 8 10 8 5 4 4 5 4 3 6 8 11 11 14 10 7 5 3
4 5 6 9 10 11 10 9 9 9 8 10 10 9 10 12 15 16 13 11 10 8 10 9 8 8 8 7 4 2 3 6 5 3 3 5 8 11 8 9 10 7 6
6 5 4 6 8 8 10 9 10 10 10 10 11 8 7 10 13 16 15 10 13 10 10 9 9 13 11 8 5 7 6 6 3 2 2 5 7 8 7 9 9 8 9
5 7 10 4 6 8 8 10 9 11 10 11 10 8 7 7 9 12 13 14 15 9 6 9 13 13 9 6 5 8 9 3 2 3 4 5 6 7 8 7 8 10 13
7 6 8 9 12 8 9 8 9 10 10 10 10 9 8 8 8 11 9 7 9 7 10 10 8 8 3 6 8 8 3 2 2 4 6 5 4 6 7 6 7 8 10
7 7 8 1 8 11 13 6 10 10 10 11 11 11 10 10 12 14 15 12 11 10 9 9 10 8 9 7 6 5 4 5 4 4 5 6 5 6 7 7 7 7 8
4 11 7 2 3 8 11 5 7 11 4 8 2 8 11 7 18 19 14 11 14 19 8 9 9 10 9 9 8 6 6 5 5 4 5 6 6 6 7 7 7 6 7
14 10 6 8 8 8 13 11 7 5 15 17 12 11 14 2 13 18 17 15 17 14 9 7 8 10 9 9 8 8 8 6 6 5 5 6 6 7 6 6 7 6 5
8 9 5 3 2 0 23 16 7 4 5 4 9 9 16 24 19 14 9 12 7 3 3 6 6 8 9 9 9 8 7 9 7 7 5 6 7 6 7 7 5 6 7
5 6 6 3 2 3 3 4 4 5 5 5 6 10 7 24 23 23 15 6 8 6 6 8 6 8 9 9 9 8 8 9 8 7 7 6 7 7 7 6 6 3 3
5 9 7 5 4 4 5 5 4 4 4 5 8 7 4 3 2 12 12 15 14 12 10 9 7 7 9 9 9 8 8 8 9 7 7 6 6 6 8 7 7 8 6
5 5 8 6 7 6 7 6 6 6 5 5 5 2 7 4 1 3 5 7 7 5 6 6 5 8 9 9 9 9 9 9 9 8 8 8 7 7 7 8 8 7 7
6 6 6 6 6 7 6 6 6 6 7 7 5 5 7 1 2 5 6 6 5 5 5 4 5 8 8 10 10 10 10 9 9 9 9 9 8 7 7 8 9 8 8
6 7 7 7 7 8 8 9 8 7 7 6 6 5 7 6 5 6 6 6 5 6 5 2 5 5 6 5 8 8 9 10 10 10 10 9 9 9 8 8 9 10 10
8 8 9 9 9 9 8 8 8 9 8 8 7 7 7 7 7 9 6 4 6 7 6 7 6 4 5 4 2 4 6 6 7 11 13 10 10 10 9 9 9 10 10
9 8 9 9 9 9 9 9 10 8 8 9 8 8 8 7 9 9 8 8 8 10 11 8 9 7 11 11 9 10 11 8 5 9 10 12 13 14 11 10 10 9 10
11 11 9 8 9 9 8 8 8 9 10 10 9 9 9 9 9 10 9 10 9 10 12 11 9 13 13 9 10 10 8 6 5 9 9 10 11 11 11 12 15 11 13
Wind_Direction
205 205 209 208 204 209 221 225 223 236 235 236 245 256 257 226 156 165 145 141 132 125 109 91 72 42 47 42 42 30 22 352 323 112 306 41 1 21 106 104 67 44 71
200 199 206 205 205 205 215 218 220 224 230 242 242 241 250 240 178 170 156 140 161 150 122 104 84 70 66 45 47 36 35 27 342 347 34 27 26 18 21 100 126 102 78
198 202 202 205 206 210 211 216 217 221 227 240 243 237 241 229 189 162 152 149 151 141 136 122 108 94 72 66 47 44 44 37 30 29 45 36 12 16 335 121 84 133 124
197 200 202 206 209 214 214 214 214 218 223 231 231 226 222 212 182 163 153 142 141 132 127 113 111 101 95 83 72 67 59 58 48 41 42 33 12 21 319 341 63 80 111
197 200 205 207 209 212 218 211 212 213 214 219 224 215 210 204 179 161 150 141 143 134 118 118 113 105 85 56 86 69 66 57 50 42 38 34 16 2 1 335 42 117 89
203 211 208 200 204 208 217 210 206 212 210 205 218 216 205 211 136 155 149 148 149 144 138 132 129 129 109 94 86 67 50 57 51 31 40 32 7 350 340 345 10 83 92
212 214 208 199 200 205 209 208 203 210 206 204 209 212 209 200 152 150 145 148 148 151 150 150 152 135 138 119 107 96 76 66 51 27 39 33 5 350 335 299 45 65 76
217 214 200 199 203 204 206 210 205 209 207 203 203 205 204 177 160 145 142 140 140 161 160 160 149 155 157 147 134 114 87 64 50 38 42 42 35 1 349 342 343 85 107
216 217 203 193 199 201 206 207 205 205 207 207 204 197 193 161 154 148 149 153 141 155 164 165 157 161 163 161 150 138 128 114 96 77 77 73 64 37 23 29 30 162 100
215 227 220 204 194 205 211 202 202 205 204 206 205 195 174 160 165 161 159 151 145 158 165 166 176 172 168 186 169 164 154 146 149 91 79 70 51 66 46 45 29 37 60
355 310 224 225 217 209 212 206 203 202 206 201 200 184 175 165 173 173 169 160 154 160 171 175 172 165 184 192 255 151 64 146 150 143 72 63 53 56 42 46 39 31 45
72 333 256 224 236 209 210 205 202 191 195 196 195 174 170 171 173 186 174 159 157 163 174 174 168 167 179 186 211 126 152 176 150 134 66 48 51 58 54 58 51 60 65
68 49 34 326 268 256 220 210 201 201 195 193 190 175 171 177 177 169 171 158 161 161 177 159 144 166 162 186 144 159 185 167 132 103 75 61 58 68 84 78 64 90 65
234 66 43 57 11 332 285 242 221 207 208 195 184 184 169 176 178 175 179 168 161 149 128 139 148 144 136 133 145 173 184 147 97 100 93 86 93 87 93 81 79 80 81
83 87 28 46 46 349 316 326 258 215 208 199 188 182 175 186 194 176 175 175 184 163 139 145 159 166 167 172 175 168 162 162 137 133 116 106 98 96 91 90 82 87 89
25 46 23 196 47 334 340 291 349 335 65 40 264 201 194 219 147 164 170 143 132 144 150 168 177 172 176 176 176 171 161 176 144 149 121 110 114 110 112 108 106 85 96
8 352 359 347 59 347 304 303 242 52 70 53 46 58 43 306 167 163 149 135 148 151 170 186 180 180 174 177 176 171 159 161 153 154 137 119 122 116 143 124 121 117 97
350 311 312 287 200 222 254 216 191 166 118 107 44 17 94 92 80 62 86 102 144 234 146 174 186 179 177 174 174 173 152 150 168 153 158 134 135 140 142 140 146 141 139
351 337 301 281 189 241 307 14 67 109 123 105 109 88 134 130 135 137 149 199 192 201 201 180 172 194 176 175 172 174 165 158 160 166 159 162 143 155 146 148 128 95 149
7 347 340 348 7 26 31 37 42 104 134 120 107 105 111 42 359 154 190 183 189 174 209 187 173 189 178 176 168 170 171 156 156 174 166 170 160 160 155 158 154 159 167
10 20 353 2 14 25 34 38 32 30 44 53 67 76 205 236 4 121 186 204 186 162 200 173 157 194 178 172 167 176 175 172 168 172 174 175 176 163 168 157 160 167 159
344 27 30 32 38 37 37 36 38 45 47 40 25 359 330 56 110 119 137 120 141 136 149 182 199 196 188 175 167 182 181 176 175 174 178 180 181 178 169 171 161 167 164
22 29 39 41 43 44 52 47 41 41 42 38 25 13 22 25 44 87 98 115 137 128 120 221 175 192 171 180 160 171 184 184 181 181 182 188 184 182 182 175 178 168 175
47 40 46 47 41 47 47 52 47 41 46 50 42 30 34 28 29 38 39 89 107 108 100 75 16 87 129 134 86 168 188 194 190 186 189 189 192 180 184 185 184 183 178
43 56 52 53 53 45 43 42 53 44 45 49 47 45 37 36 42 36 39 50 49 56 50 55 58 43 62 53 38 8 348 340 218 186 194 200 197 185 195 190 182 187 188
52 49 55 52 56 57 51 48 45 54 45 40 40 37 44 43 46 44 37 49 51 57 58 53 61 54 54 48 26 6 345 345 244 226 206 201 199 188 193 199 191 184 188